Teterboro, NJ

11:35 AM EDT on April 24, 2018 (GMT -0400)
Teterboro

Weather History for KTEB - November, 2012

Change the Weather History Date:

Saturday, November 3, 2012

  Actual Average Record
Temperature  
Mean Temperature 46 °F -  
Max Temperature 52 °F 56 °F 80 °F (2003)
Min Temperature 41 °F 39 °F 30 °F (2002)
Degree Days  
Heating Degree Days 20    
Moisture  
Dew Point 30 °F    
Average Humidity 57    
Maximum Humidity 67    
Minimum Humidity 46    
Precipitation  
Precipitation 0.00 in - - ()
Sea Level Pressure  
Sea Level Pressure 29.84 in    
Wind  
Wind Speed 11 mph (NW)    
Max Wind Speed 22 mph    
Max Gust Speed 31 mph    
Visibility 10 miles    
Events      
Averages and records for this station are not official NWS values.
T = Trace of Precipitation, MM = Missing Value Source: NWS Daily Summary

Daily Weather History Graph

Daily Weather History Graph

Search for Another Location

Airport or City:

Astronomy

Nov. 03, 2012 Rise Set
Actual Time 7:29 AM EDT 5:49 PM EDT
Civil Twilight 7:01 AM EDT 6:17 PM EDT
Nautical Twilight 6:28 AM EDT 6:50 PM EDT
Astronomical Twilight 5:56 AM EDT 7:22 PM EDT
Moon 9:27 PM EDT (11/3) 11:32 AM EDT (11/3)
Length of Visible Light 11h 16m
Length of Day
10h 19m
Waning Gibbous, 80% of the Moon is Illuminated
Nov 3
Waning Gibbous
Nov 6
Last Quarter
Nov 13
New
Nov 20
First Quarter
Nov 28
Full

Hourly Weather History & Observations

Time (EDT) Temp. Windchill Dew Point Humidity Pressure Visibility Wind Dir Wind Speed Gust Speed Precip Events Conditions
12:51 AM 41.0 °F 37.1 °F 30.9 °F 67% 29.76 in 10.0 mi West 5.8 mph - N/A   Scattered Clouds
1:51 AM 43.0 °F 37.2 °F 30.0 °F 60% 29.76 in 10.0 mi WNW 10.4 mph 18.4 mph N/A   Scattered Clouds
2:51 AM 42.1 °F 36.1 °F 30.0 °F 62% 29.76 in 10.0 mi WNW 10.4 mph - N/A   Clear
3:51 AM 41.0 °F 35.8 °F 30.0 °F 65% 29.76 in 10.0 mi NW 8.1 mph - N/A   Clear
4:51 AM 42.1 °F 36.6 °F 30.0 °F 62% 29.77 in 10.0 mi WNW 9.2 mph - N/A   Clear
5:51 AM 41.0 °F 36.4 °F 30.0 °F 65% 29.78 in 10.0 mi WNW 6.9 mph - N/A   Clear
6:51 AM 42.1 °F 37.1 °F 30.0 °F 62% 29.80 in 10.0 mi WNW 8.1 mph - N/A   Clear
7:51 AM 42.1 °F 37.7 °F 30.0 °F 62% 29.82 in 10.0 mi WNW 6.9 mph - N/A   Clear
8:51 AM 44.1 °F 37.7 °F 30.9 °F 60% 29.84 in 10.0 mi NW 12.7 mph - N/A   Clear
9:51 AM 46.0 °F 38.8 °F 30.9 °F 56% 29.84 in 10.0 mi NW 18.4 mph 27.6 mph N/A   Clear
10:51 AM 48.0 °F - 30.0 °F 50% 29.85 in 10.0 mi NNW 17.3 mph 31.1 mph N/A   Clear
11:51 AM 48.9 °F - 32.0 °F 52% 29.84 in 10.0 mi NW 15.0 mph 26.5 mph N/A   Scattered Clouds
12:51 PM 48.9 °F - 30.9 °F 50% 29.83 in 10.0 mi NW 19.6 mph 28.8 mph N/A   Mostly Cloudy
1:51 PM 50.0 °F - 30.0 °F 46% 29.83 in 10.0 mi WNW 21.9 mph 31.1 mph N/A   Mostly Cloudy
2:51 PM 50.0 °F - 30.9 °F 48% 29.83 in 10.0 mi NW 17.3 mph 25.3 mph N/A   Mostly Cloudy
3:51 PM 48.9 °F - 30.0 °F 48% 29.85 in 10.0 mi NW 17.3 mph 24.2 mph N/A   Overcast
4:51 PM 48.0 °F - 30.9 °F 52% 29.87 in 10.0 mi NW 13.8 mph 24.2 mph N/A   Overcast
5:51 PM 46.9 °F - 28.9 °F 50% 29.87 in 10.0 mi NNW 11.5 mph 21.9 mph N/A   Mostly Cloudy
6:51 PM 46.0 °F 40.2 °F 30.0 °F 54% 29.90 in 10.0 mi WNW 12.7 mph - N/A   Mostly Cloudy
7:51 PM 44.1 °F 39.5 °F 30.0 °F 58% 29.92 in 10.0 mi NW 8.1 mph - N/A   Clear
8:51 PM 43.0 °F 38.2 °F 28.9 °F 58% 29.93 in 10.0 mi NW 8.1 mph 18.4 mph N/A   Clear
9:51 PM 42.1 °F 35.2 °F 28.9 °F 60% 29.93 in 10.0 mi NW 12.7 mph 18.4 mph N/A   Clear
10:51 PM 42.1 °F 33.6 °F 28.9 °F 60% 29.93 in 10.0 mi NW 18.4 mph 24.2 mph N/A   Clear
11:51 PM 41.0 °F 34.3 °F 28.9 °F 62% 29.94 in 10.0 mi WNW 11.5 mph - N/A   Clear